TimeHST,TemperatureF,Dew PointF,Humidity,Sea Level PressureIn,VisibilityMPH,Wind Direction,Wind SpeedMPH,Gust SpeedMPH,PrecipitationIn,Events,Conditions,WindDirDegrees,DateUTC
12:50 AM,62.6,60.8,94,29.99,10.0,West,6.9,-,N/A,,Mostly Cloudy,280,2013-01-28 10:50:00
12:53 AM,63.0,60.1,90,29.98,10.0,WNW,6.9,-,N/A,,Mostly Cloudy,290,2013-01-28 10:53:00
1:00 AM,62.6,60.8,94,29.98,10.0,WNW,8.1,-,N/A,,Scattered Clouds,300,2013-01-28 11:00:00
1:53 AM,63.0,60.1,90,29.97,10.0,West,9.2,-,N/A,,Clear,280,2013-01-28 11:53:00
2:53 AM,63.0,61.0,93,29.95,10.0,WNW,5.8,-,N/A,,Mostly Cloudy,290,2013-01-28 12:53:00
3:53 AM,64.0,61.0,90,29.95,10.0,WNW,6.9,-,N/A,,Overcast,290,2013-01-28 13:53:00
4:09 AM,64.4,62.6,94,29.95,10.0,NNW,3.5,-,N/A,,Overcast,330,2013-01-28 14:09:00
4:53 AM,64.0,62.1,93,29.95,10.0,WNW,4.6,-,N/A,,Overcast,290,2013-01-28 14:53:00
5:53 AM,64.0,61.0,90,29.95,10.0,NNW,5.8,-,N/A,,Mostly Cloudy,340,2013-01-28 15:53:00
6:53 AM,66.0,62.1,87,29.97,10.0,NW,3.5,-,N/A,,Overcast,320,2013-01-28 16:53:00
7:31 AM,66.2,62.6,88,29.99,5.0,NNE,10.4,-,0.00,Rain,Rain,20,2013-01-28 17:31:00
7:40 AM,66.2,62.6,88,29.99,2.5,North,8.1,-,0.04,Rain,Rain,360,2013-01-28 17:40:00
7:48 AM,66.2,62.6,88,29.99,6.0,North,10.4,-,0.05,Rain,Light Rain,360,2013-01-28 17:48:00
7:53 AM,66.9,63.0,87,29.99,9.0,North,10.4,-,0.05,Rain,Light Rain,350,2013-01-28 17:53:00
8:30 AM,-9999,-9999,N/A,30.00,10.0,North,6.9,-,0.00,,Overcast,350,2013-01-28 18:30:00
8:53 AM,66.9,64.0,90,30.00,4.0,NNE,5.8,-,0.01,Rain,Light Rain,30,2013-01-28 18:53:00
9:04 AM,68.0,64.4,88,30.01,10.0,Calm,Calm,-,0.00,,Overcast,0,2013-01-28 19:04:00
9:22 AM,66.2,64.4,94,30.01,2.5,NE,6.9,-,0.06,Rain,Rain,50,2013-01-28 19:22:00
9:30 AM,66.2,62.6,88,30.01,1.5,NNW,4.6,-,0.18,Rain,Rain,340,2013-01-28 19:30:00
9:32 AM,68.0,62.6,83,30.01,2.0,NNW,5.8,-,0.18,Rain,Rain,340,2013-01-28 19:32:00
9:40 AM,68.0,64.4,88,30.01,9.0,North,8.1,-,0.18,Rain,Light Rain,350,2013-01-28 19:40:00
9:53 AM,69.1,64.0,84,30.00,10.0,NNE,13.8,17.3,0.18,,Overcast,30,2013-01-28 19:53:00
10:53 AM,72.0,62.1,71,30.00,10.0,NE,15.0,-,N/A,,Overcast,40,2013-01-28 20:53:00
11:53 AM,73.0,62.1,68,29.99,10.0,NE,16.1,-,N/A,,Overcast,40,2013-01-28 21:53:00
12:53 PM,73.9,63.0,68,29.97,10.0,NE,16.1,-,N/A,,Mostly Cloudy,40,2013-01-28 22:53:00
1:53 PM,73.9,62.1,66,29.94,10.0,NE,13.8,-,N/A,,Overcast,40,2013-01-28 23:53:00
2:39 PM,71.6,64.4,78,29.93,10.0,East,12.7,-,N/A,,Overcast,80,2013-01-29 00:39:00
2:53 PM,71.1,63.0,75,29.93,10.0,ENE,10.4,-,N/A,,Overcast,70,2013-01-29 00:53:00
3:53 PM,73.0,63.0,71,29.92,10.0,NE,11.5,-,N/A,,Mostly Cloudy,50,2013-01-29 01:53:00
4:53 PM,73.9,64.0,71,29.93,10.0,NE,9.2,-,N/A,,Mostly Cloudy,40,2013-01-29 02:53:00
5:53 PM,71.1,63.0,75,29.94,10.0,NE,11.5,-,N/A,,Overcast,40,2013-01-29 03:53:00
6:53 PM,70.0,64.0,81,29.95,10.0,NE,11.5,-,N/A,,Mostly Cloudy,40,2013-01-29 04:53:00
7:34 PM,69.8,64.4,83,29.97,10.0,NNE,10.4,-,N/A,,Mostly Cloudy,30,2013-01-29 05:34:00
7:53 PM,70.0,64.0,81,29.97,10.0,NE,9.2,-,N/A,,Mostly Cloudy,40,2013-01-29 05:53:00
8:16 PM,71.6,64.4,78,29.98,10.0,NE,10.4,-,N/A,,Mostly Cloudy,40,2013-01-29 06:16:00
8:53 PM,69.1,64.0,84,29.98,10.0,North,4.6,-,N/A,,Overcast,350,2013-01-29 06:53:00
9:10 PM,69.8,64.4,83,29.98,10.0,NNW,3.5,-,N/A,,Mostly Cloudy,330,2013-01-29 07:10:00
9:27 PM,68.0,64.4,88,29.98,10.0,Calm,Calm,-,N/A,,Overcast,0,2013-01-29 07:27:00
9:44 PM,68.0,64.4,88,29.98,10.0,WNW,4.6,-,N/A,,Overcast,290,2013-01-29 07:44:00
9:53 PM,68.0,64.0,87,29.98,10.0,NNW,3.5,-,N/A,,Overcast,330,2013-01-29 07:53:00
10:07 PM,68.0,64.4,88,29.98,10.0,NW,3.5,-,N/A,,Overcast,320,2013-01-29 08:07:00
10:53 PM,66.9,63.0,87,29.98,10.0,WNW,5.8,-,N/A,,Overcast,290,2013-01-29 08:53:00
11:07 PM,66.2,62.6,88,29.98,2.5,West,8.1,-,0.08,Rain,Rain,280,2013-01-29 09:07:00
11:15 PM,66.2,62.6,88,29.98,8.0,West,6.9,-,0.09,Rain,Light Rain,280,2013-01-29 09:15:00
11:23 PM,-9999,-9999,N/A,29.98,10.0,West,6.9,-,0.09,Rain,Light Rain,280,2013-01-29 09:23:00
11:53 PM,66.2,63.0,89,29.97,10.0,WNW,3.5,-,0.11,Rain,Light Rain,290,2013-01-29 09:53:00